sat.trackr.live / text

‹ back to catalog

STARLINK-33668

NORAD 63402 · 2025-065D

PAYLOAD ACTIVE UNKNOWN

§ Identity

Operator
Country
US
Launch date
2025-03-31
Launch site
AFETR
Launch vehicle
Mass (kg)
RCS (m²)

Purposes: comms

External: N2YO · Heavens-Above · Gunter

§ Orbital elements

Epoch: 2026-09-20T21:36:37.214208Z

Period
94.27 min
Inclination
43.0035°
Eccentricity
0.0002211
Mean motion
15.27584033 rev/d
Perigee alt
481.5 km
Apogee alt
484.6 km
Semi-major
6,861.2 km
B*
4.0565e-4
RAAN
84.7414°
Arg perigee
254.5891°
Mean anomaly
105.4716°
Rev number
8,269

§ Raw data

STARLINK-336681 63402U 25065D   26263.90043072  .00010918  00000+0  40565-3 0  99982 63402  43.0035  84.7414 0002211 254.5891 105.4716 15.27584033 82697

JSON: /api/v1/satellites/63402 · /tle

For live sub-satellite position, see the globe view (requires WebGL).

§ Visibility from observer

Set your observer location to see the next 7 days of passes ≥ 10°. The values pass through the URL so the page stays shareable.

No JS? Fill the form by hand. The geolocation button needs JavaScript.